• In Moldova, Republic
  • List of Countries
  • For 7 days
  • Water Temperature
  • Satellite Maps
  • Weather Map
  • Weather Widgets
  • user-avatar
    Login

    Hourly Weather Graz

    Today, 20 January, Friday

    Time Temperature Precipitation Wind Pressure Humidity
    00:00 -12°C° 0 mm 0 mps 735 mmHg 95%
    01:00 -11°C° 0 mm 1 mps 736 mmHg 95%
    02:00 -11°C° 0 mm 0 mps 736 mmHg 95%
    03:00 -11°C° 0 mm 0 mps 735 mmHg 95%
    04:00 -12°C° 0 mm 0 mps 735 mmHg 95%
    05:00 -12°C° 0 mm 0 mps 735 mmHg 94%
    06:00 -12°C° 0 mm 0 mps 735 mmHg 93%
    07:00 -12°C° 0 mm 0 mps 735 mmHg 92%
    08:00 -9°C° 0 mm 0 mps 736 mmHg 89%
    09:00 -6°C° 0 mm 0 mps 736 mmHg 85%
    10:00 -3°C° 0 mm 0 mps 736 mmHg 81%
    11:00 -1°C° 0 mm 1 mps 736 mmHg 80%
    12:00 0°C° 0 mm 1 mps 736 mmHg 80%
    13:00 +1°C° 0 mm 1 mps 736 mmHg 80%
    14:00 -1°C° 0 mm 1 mps 735 mmHg 85%
    15:00 -2°C° 0 mm 1 mps 735 mmHg 89%
    16:00 -4°C° 0 mm 1 mps 735 mmHg 94%
    17:00 -6°C° 0 mm 1 mps 735 mmHg 95%
    18:00 -8°C° 0 mm 1 mps 735 mmHg 95%
    19:00 -9°C° 0 mm 1 mps 734 mmHg 96%
    20:00 -9°C° 0 mm 1 mps 734 mmHg 95%
    21:00 -10°C° 0 mm 1 mps 734 mmHg 95%
    22:00 -10°C° 0 mm 1 mps 734 mmHg 95%
    23:00 -10°C° 0 mm 1 mps 734 mmHg 94%

    Tomorrow, 21 January, Saturday

    Time Temperature Precipitation Wind Pressure Humidity
    00:00 -10°C° 0 mm 1 mps 734 mmHg 94%
    01:00 -10°C° 0 mm 0 mps 734 mmHg 94%
    02:00 -10°C° 0 mm 0 mps 734 mmHg 93%
    03:00 -10°C° 0 mm 0 mps 734 mmHg 93%
    04:00 -10°C° 0 mm 0 mps 733 mmHg 93%
    05:00 -10°C° 0 mm 1 mps 733 mmHg 92%
    06:00 -10°C° 0 mm 1 mps 733 mmHg 92%
    07:00 -10°C° 0 mm 1 mps 733 mmHg 92%
    08:00 -8°C° 0 mm 1 mps 734 mmHg 88%
    09:00 -5°C° 0 mm 0 mps 734 mmHg 85%
    10:00 -2°C° 0 mm 0 mps 734 mmHg 81%
    11:00 0°C° 0 mm 1 mps 734 mmHg 81%
    12:00 +1°C° 0 mm 1 mps 734 mmHg 81%
    13:00 +2°C° 0 mm 1 mps 734 mmHg 80%
    14:00 0°C° 0 mm 1 mps 734 mmHg 85%
    15:00 -1°C° 0 mm 1 mps 733 mmHg 90%
    16:00 -3°C° 0 mm 1 mps 733 mmHg 94%
    17:00 -4°C° 0 mm 1 mps 733 mmHg 95%
    18:00 -7°C° 0 mm 1 mps 733 mmHg 95%
    19:00 -9°C° 0 mm 1 mps 733 mmHg 96%
    20:00 -9°C° 0 mm 0 mps 733 mmHg 95%
    21:00 -9°C° 0 mm 0 mps 733 mmHg 95%
    22:00 -9°C° 0 mm 0 mps 734 mmHg 95%
    23:00 -9°C° 0 mm 0 mps 734 mmHg 95%

    Day after tomorrow, 22 January, Sunday

    Time Temperature Precipitation Wind Pressure Humidity
    00:00 -9°C° 0 mm 0 mps 734 mmHg 95%
    01:00 -9°C° 0 mm 0 mps 734 mmHg 95%
    02:00 -9°C° 0 mm 0 mps 733 mmHg 95%
    03:00 -10°C° 0 mm 1 mps 733 mmHg 94%
    04:00 -10°C° 0 mm 1 mps 733 mmHg 94%
    05:00 -10°C° 0 mm 1 mps 733 mmHg 94%
    06:00 -10°C° 0 mm 1 mps 733 mmHg 94%
    07:00 -10°C° 0 mm 1 mps 733 mmHg 94%
    08:00 -8°C° 0 mm 1 mps 733 mmHg 91%
    09:00 -4°C° 0 mm 1 mps 733 mmHg 88%
    10:00 -2°C° 0 mm 1 mps 734 mmHg 85%
    11:00 -1°C° 0 mm 1 mps 733 mmHg 84%
    12:00 0°C° 0 mm 1 mps 733 mmHg 82%
    13:00 +1°C° 0 mm 1 mps 732 mmHg 81%
    14:00 -1°C° 0 mm 1 mps 732 mmHg 86%
    15:00 -2°C° 0 mm 1 mps 732 mmHg 90%
    16:00 -3°C° 0 mm 1 mps 731 mmHg 94%
    17:00 -6°C° 0 mm 1 mps 731 mmHg 95%
    18:00 -7°C° 0 mm 1 mps 731 mmHg 96%
    19:00 -9°C° 0 mm 1 mps 731 mmHg 96%
    20:00 -9°C° 0 mm 1 mps 731 mmHg 96%
    21:00 -9°C° 0 mm 1 mps 731 mmHg 96%
    22:00 -9°C° 0 mm 1 mps 730 mmHg 96%
    23:00 -9°C° 0 mm 1 mps 730 mmHg 96%

    23 January, Monday

    Time Temperature Precipitation Wind Pressure Humidity
    00:00 -9°C° 0 mm 1 mps 730 mmHg 96%
    01:00 -8°C° 0 mm 1 mps 730 mmHg 95%
    02:00 -9°C° 0 mm 1 mps 730 mmHg 95%
    03:00 -9°C° 0 mm 1 mps 729 mmHg 95%
    04:00 -9°C° 0 mm 1 mps 729 mmHg 95%
    05:00 -9°C° 0 mm 1 mps 729 mmHg 95%
    06:00 -9°C° 0 mm 1 mps 728 mmHg 95%
    07:00 -9°C° 0 mm 1 mps 728 mmHg 95%
    08:00 -7°C° 0 mm 1 mps 728 mmHg 91%
    09:00 -3°C° 0 mm 1 mps 729 mmHg 88%
    10:00 -1°C° 0 mm 1 mps 729 mmHg 85%
    11:00 0°C° 0 mm 1 mps 728 mmHg 85%
    12:00 +1°C° 0 mm 1 mps 728 mmHg 85%
    13:00 +2°C° 0 mm 0 mps 727 mmHg 85%
    14:00 +1°C° 0 mm 1 mps 727 mmHg 89%
    15:00 0°C° 0 mm 1 mps 727 mmHg 93%
    16:00 -2°C° 0 mm 1 mps 726 mmHg 97%
    17:00 -4°C° 0 mm 1 mps 726 mmHg 97%
    18:00 -6°C° 0 mm 0 mps 726 mmHg 98%
    19:00 -8°C° 0 mm 0 mps 725 mmHg 98%
    20:00 -8°C° 0 mm 0 mps 726 mmHg 98%
    21:00 -8°C° 0 mm 0 mps 726 mmHg 98%
    22:00 -9°C° 0 mm 0 mps 726 mmHg 98%
    23:00 -9°C° 0 mm 0 mps 726 mmHg 98%

    24 January, Tuesday

    Time Temperature Precipitation Wind Pressure Humidity
    00:00 -9°C° 0 mm 0 mps 725 mmHg 98%
    01:00 -9°C° 0 mm 0 mps 725 mmHg 98%
    02:00 -8°C° 0 mm 1 mps 725 mmHg 97%
    03:00 -7°C° 0 mm 1 mps 725 mmHg 97%
    04:00 -6°C° 0 mm 1 mps 726 mmHg 96%
    05:00 -7°C° 0 mm 1 mps 726 mmHg 96%
    06:00 -7°C° 0 mm 1 mps 726 mmHg 96%
    07:00 -7°C° 0 mm 1 mps 726 mmHg 96%
    08:00 -4°C° 0 mm 1 mps 727 mmHg 94%
    09:00 -3°C° 0 mm 1 mps 727 mmHg 92%
    10:00 -1°C° 0 mm 1 mps 728 mmHg 91%
    11:00 0°C° 0 mm 1 mps 728 mmHg 89%
    12:00 +1°C° 0 mm 1 mps 727 mmHg 87%
    13:00 +2°C° 0 mm 1 mps 727 mmHg 86%
    14:00 0°C° 0 mm 1 mps 727 mmHg 89%
    15:00 -1°C° 0 mm 1 mps 727 mmHg 92%
    16:00 -2°C° 0 mm 1 mps 727 mmHg 96%
    17:00 -3°C° 0 mm 1 mps 728 mmHg 96%
    18:00 -4°C° 0 mm 1 mps 728 mmHg 96%
    19:00 -6°C° 0 mm 1 mps 728 mmHg 96%
    20:00 -6°C° 0 mm 1 mps 728 mmHg 95%
    21:00 -7°C° 0 mm 1 mps 729 mmHg 94%
    22:00 -8°C° 0 mm 2 mps 729 mmHg 92%
    23:00 -8°C° 0 mm 2 mps 729 mmHg 92%

    25 January, Wednesday

    Time Temperature Precipitation Wind Pressure Humidity
    00:00 -7°C° 0 mm 1 mps 729 mmHg 92%
    01:00 -8°C° 0 mm 1 mps 729 mmHg 92%
    02:00 -8°C° 0 mm 1 mps 729 mmHg 92%
    03:00 -8°C° 0 mm 1 mps 730 mmHg 93%
    04:00 -8°C° 0 mm 1 mps 730 mmHg 93%
    05:00 -8°C° 0 mm 1 mps 730 mmHg 93%
    06:00 -8°C° 0 mm 1 mps 730 mmHg 94%
    07:00 -8°C° 0 mm 1 mps 730 mmHg 94%
    08:00 -7°C° 0 mm 1 mps 731 mmHg 91%
    09:00 -4°C° 0 mm 1 mps 731 mmHg 88%
    10:00 -2°C° 0 mm 1 mps 732 mmHg 85%
    11:00 -1°C° 0 mm 1 mps 731 mmHg 83%
    12:00 0°C° 0 mm 1 mps 731 mmHg 81%
    13:00 +1°C° 0 mm 1 mps 731 mmHg 78%
    14:00 0°C° 0 mm 1 mps 731 mmHg 83%
    15:00 -1°C° 0 mm 1 mps 731 mmHg 87%
    16:00 -3°C° 0 mm 1 mps 730 mmHg 92%
    17:00 -4°C° 0 mm 1 mps 730 mmHg 93%
    18:00 -7°C° 0 mm 0 mps 730 mmHg 94%
    19:00 -9°C° 0 mm 0 mps 730 mmHg 96%
    20:00 -9°C° 0 mm 0 mps 730 mmHg 96%
    21:00 -9°C° 0 mm 0 mps 730 mmHg 96%
    22:00 -9°C° 0 mm 0 mps 730 mmHg 96%
    23:00 -9°C° 0 mm 0 mps 730 mmHg 96%
    Show more